,,PA_Meas_PMT16A,,PR_Meas_QMR101_102,,RH_Meas_QMH101,,SR_Meas_QMS101,,TA_Meas_QMH101,,GenWind,,GenWind,
time,status,PA,status,PR,status,RH,status,SR,status,TA,status,DirAvg,status,SpdAvg,
2010-01-23, 00:00:04,VALID,920.044,VALID,0,VALID,97.4577,VALID,0,VALID,19.7583,VALID,132,VALID,0.809375,
2010-01-23, 00:01:04,VALID,920.042,VALID,0,VALID,97.4349,VALID,0,VALID,19.7583,VALID,132,VALID,1.06172,
2010-01-23, 00:02:04,VALID,920.017,VALID,0,VALID,97.4273,VALID,0,VALID,19.7583,VALID,128,VALID,1.16562,
2010-01-23, 00:03:04,VALID,920.04,VALID,0,VALID,97.4044,VALID,0,VALID,19.7388,VALID,124,VALID,0.985937,
2010-01-23, 00:04:04,VALID,920.019,VALID,0,VALID,97.4273,VALID,0,VALID,19.7583,VALID,124,VALID,0.802734,
2010-01-23, 00:05:04,VALID,920.036,VALID,0,VALID,97.3815,VALID,0,VALID,19.7388,VALID,124,VALID,0.790625,
2010-01-23, 00:06:04,VALID,920.015,VALID,0,VALID,97.3815,VALID,0,VALID,19.7388,VALID,124,VALID,0.715625,
2010-01-23, 00:07:04,VALID,920.056,VALID,0,VALID,97.3739,VALID,0,VALID,19.7388,VALID,123,VALID,0.895312,
2010-01-23, 00:08:04,VALID,920.038,VALID,0,VALID,97.3434,VALID,0,VALID,19.7178,VALID,123,VALID,0.920313,
2010-01-23, 00:09:04,VALID,920.054,VALID,0,VALID,97.351,VALID,0,VALID,19.7388,VALID,123,VALID,0.801562,
2010-01-23, 00:10:04,VALID,920.086,VALID,0,VALID,97.3281,VALID,0,VALID,19.7583,VALID,123,VALID,0.453125,
2010-01-23, 00:11:04,VALID,920.071,VALID,0,VALID,97.3053,VALID,0,VALID,19.7583,VALID,123,VALID,0.0804688,
2010-01-23, 00:12:04,VALID,920.058,VALID,0,VALID,97.3281,VALID,0,VALID,19.7778,VALID,123,VALID,0.228516,
2010-01-23, 00:13:04,VALID,920.057,VALID,0,VALID,97.3129,VALID,0,VALID,19.7583,VALID,123,VALID,0.177734,
2010-01-23, 00:14:04,VALID,920.027,VALID,0,VALID,97.2748,VALID,0.107441,VALID,19.7583,VALID,123,VALID,0.203906,
2010-01-23, 00:15:04,VALID,920.005,VALID,0,VALID,97.2977,VALID,0.107441,VALID,19.7778,VALID,123,VALID,0.444922,
2010-01-23, 00:16:04,VALID,920.028,VALID,0,VALID,97.2519,VALID,0,VALID,19.7583,VALID,123,VALID,0.325391,
2010-01-23, 00:17:04,VALID,919.995,VALID,0,VALID,97.229,VALID,0,VALID,19.7388,VALID,123,VALID,0.376172,
2010-01-23, 00:18:04,VALID,919.94,VALID,0,VALID,97.229,VALID,0,VALID,19.7193,VALID,123,VALID,0.473437,
2010-01-23, 00:19:04,VALID,919.927,VALID,0,VALID,97.1909,VALID,0,VALID,19.6803,VALID,123,VALID,0.224219,
2010-01-23, 00:20:04,VALID,919.909,VALID,0,VALID,97.2138,VALID,0,VALID,19.6803,VALID,123,VALID,0.675781,
2010-01-23, 00:21:04,VALID,919.899,VALID,0,VALID,97.2062,VALID,0,VALID,19.6803,VALID,123,VALID,0.914453,
2010-01-23, 00:22:04,VALID,919.87,VALID,0,VALID,97.2367,VALID,0,VALID,19.6608,VALID,123,VALID,0.837891,
2010-01-23, 00:23:04,VALID,919.816,VALID,0,VALID,97.229,VALID,0,VALID,19.6218,VALID,123,VALID,0.431641,
2010-01-23, 00:24:04,VALID,919.757,VALID,0,VALID,97.2443,VALID,0,VALID,19.6413,VALID,123,VALID,0.385938,
2010-01-23, 00:25:04,VALID,919.737,VALID,0,VALID,97.2519,VALID,0,VALID,19.6818,VALID,123,VALID,1.02852,
2010-01-23, 00:26:04,VALID,919.725,VALID,0,VALID,97.2748,VALID,0,VALID,19.6608,VALID,123,VALID,0.929688,
2010-01-23, 00:27:04,VALID,919.689,VALID,0,VALID,97.2672,VALID,0,VALID,19.6803,VALID,123,VALID,0.717188,
2010-01-23, 00:28:04,VALID,919.635,VALID,0,VALID,97.2595,VALID,0,VALID,19.6803,VALID,123,VALID,0.769141,
2010-01-23, 00:29:04,VALID,919.616,VALID,0,VALID,97.2519,VALID,0,VALID,19.6998,VALID,123,VALID,0.699219,
2010-01-23, 00:30:04,VALID,919.595,VALID,0,VALID,97.2519,VALID,0,VALID,19.6998,VALID,123,VALID,1.38828,
2010-01-23, 00:31:04,VALID,919.567,VALID,0,VALID,97.229,VALID,0,VALID,19.7193,VALID,123,VALID,0.564844,
2010-01-23, 00:32:04,VALID,919.525,VALID,0,VALID,97.1909,VALID,0,VALID,19.7193,VALID,161,VALID,0.458594,
2010-01-23, 00:33:04,VALID,919.529,VALID,0,VALID,97.1604,VALID,0,VALID,19.7388,VALID,161,VALID,0.775,
2010-01-23, 00:34:04,VALID,919.523,VALID,0,VALID,97.1528,VALID,0,VALID,19.7583,VALID,161,VALID,0.715234,
2010-01-23, 00:35:04,VALID,919.503,VALID,0,VALID,97.0994,VALID,0,VALID,19.7583,VALID,161,VALID,1.30586,
2010-01-23, 00:36:04,VALID,919.514,VALID,0,VALID,97.0537,VALID,0,VALID,19.7568,VALID,161,VALID,0.515234,
2010-01-23, 00:37:04,VALID,919.501,VALID,0,VALID,97.0003,VALID,0,VALID,19.7778,VALID,161,VALID,0.429688,
2010-01-23, 00:38:04,VALID,919.529,VALID,0,VALID,96.9394,VALID,0,VALID,19.7568,VALID,161,VALID,0.428516,
2010-01-23, 00:39:04,VALID,919.521,VALID,0,VALID,96.886,VALID,0,VALID,19.7583,VALID,161,VALID,0.610156,
2010-01-23, 00:40:04,VALID,919.557,VALID,0,VALID,96.7945,VALID,0,VALID,19.7583,VALID,160,VALID,1.22305,
2010-01-23, 00:41:04,VALID,919.547,VALID,0,VALID,96.7183,VALID,0,VALID,19.7778,VALID,143,VALID,1.73203,
2010-01-23, 00:42:04,VALID,919.558,VALID,0,VALID,96.6192,VALID,0.107441,VALID,19.8168,VALID,154,VALID,1.00937,
2010-01-23, 00:43:04,VALID,919.557,VALID,0,VALID,96.5124,VALID,0,VALID,19.8363,VALID,125,VALID,0.770703,
2010-01-23, 00:44:04,VALID,919.549,VALID,0,VALID,96.4133,VALID,0,VALID,19.8153,VALID,171,VALID,1.19141,
2010-01-23, 00:45:04,VALID,919.517,VALID,0,VALID,96.2685,VALID,0.107441,VALID,19.8558,VALID,174,VALID,0.647656,
2010-01-23, 00:46:04,VALID,919.528,VALID,0,VALID,96.1236,VALID,0.107441,VALID,19.8753,VALID,173,VALID,0.95,
2010-01-23, 00:47:04,VALID,919.504,VALID,0,VALID,95.9941,VALID,0,VALID,19.8753,VALID,114,VALID,0.773828,
2010-01-23, 00:48:04,VALID,919.494,VALID,0,VALID,95.8263,VALID,0,VALID,19.8543,VALID,114,VALID,1.0957,
2010-01-23, 00:49:04,VALID,919.464,VALID,0,VALID,95.712,VALID,0.107441,VALID,19.8948,VALID,114,VALID,0.742969,
2010-01-23, 00:50:04,VALID,919.472,VALID,0,VALID,95.5976,VALID,0.107441,VALID,19.8948,VALID,114,VALID,0.557813,
2010-01-23, 00:51:04,VALID,919.453,VALID,0,VALID,95.5671,VALID,0,VALID,19.8948,VALID,115,VALID,0.636328,
2010-01-23, 00:52:04,VALID,919.438,VALID,0,VALID,95.4528,VALID,0,VALID,19.8753,VALID,115,VALID,0.856641,
2010-01-23, 00:53:04,VALID,919.47,VALID,0,VALID,95.2851,VALID,0,VALID,19.8948,VALID,115,VALID,1.13477,
2010-01-23, 00:54:04,VALID,919.443,VALID,0,VALID,95.1021,VALID,0,VALID,19.8948,VALID,115,VALID,1.11445,
2010-01-23, 00:55:04,VALID,919.428,VALID,0,VALID,95.0259,VALID,0,VALID,19.8948,VALID,115,VALID,0.987891,
2010-01-23, 00:56:04,VALID,919.45,VALID,0,VALID,95.0488,VALID,0,VALID,19.8753,VALID,115,VALID,0.95625,
2010-01-23, 00:57:04,VALID,919.451,VALID,0,VALID,95.1174,VALID,0.107441,VALID,19.8363,VALID,115,VALID,0.762109,
2010-01-23, 00:58:04,VALID,919.418,VALID,0,VALID,95.1402,VALID,0,VALID,19.7988,VALID,115,VALID,0.726172,
2010-01-23, 00:59:04,VALID,919.388,VALID,0,VALID,95.3918,VALID,0,VALID,19.7778,VALID,140,VALID,1.05391,
2010-01-23, 01:00:04,VALID,919.354,VALID,0,VALID,95.4833,VALID,0.107441,VALID,19.7778,VALID,140,VALID,0.769531,
2010-01-23, 01:01:04,VALID,919.322,VALID,0,VALID,95.4985,VALID,0,VALID,19.7388,VALID,140,VALID,0.78125,
2010-01-23, 01:02:04,VALID,919.31,VALID,0,VALID,95.6053,VALID,0,VALID,19.7388,VALID,140,VALID,0.788672,
2010-01-23, 01:03:04,VALID,919.258,VALID,0,VALID,95.712,VALID,0,VALID,19.7193,VALID,140,VALID,1.10195,
2010-01-23, 01:04:04,VALID,919.28,VALID,0,VALID,95.7654,VALID,0.107441,VALID,19.7193,VALID,140,VALID,1.06562,
2010-01-23, 01:05:04,VALID,919.207,VALID,0,VALID,95.8568,VALID,0,VALID,19.6998,VALID,140,VALID,0.682813,
2010-01-23, 01:06:04,VALID,919.172,VALID,0,VALID,95.8721,VALID,0,VALID,19.6998,VALID,140,VALID,0.783984,
2010-01-23, 01:07:04,VALID,919.119,VALID,0,VALID,95.834,VALID,0.107441,VALID,19.6608,VALID,140,VALID,0.734375,
2010-01-23, 01:08:04,VALID,919.118,VALID,0,VALID,95.9407,VALID,0.107441,VALID,19.6623,VALID,140,VALID,0.762109,
2010-01-23, 01:09:04,VALID,919.102,VALID,0,VALID,96.0398,VALID,0.107441,VALID,19.6413,VALID,140,VALID,0.473437,
2010-01-23, 01:10:04,VALID,919.092,VALID,0,VALID,96.0932,VALID,0,VALID,19.6218,VALID,140,VALID,0.636328,
2010-01-23, 01:11:04,VALID,919.075,VALID,0,VALID,96.1618,VALID,0.107441,VALID,19.6218,VALID,140,VALID,0.508984,
2010-01-23, 01:12:04,VALID,919.067,VALID,0,VALID,96.2151,VALID,0,VALID,19.5813,VALID,140,VALID,0.391016,
2010-01-23, 01:13:04,VALID,919.074,VALID,0,VALID,96.2533,VALID,0,VALID,19.6218,VALID,140,VALID,0.514844,
2010-01-23, 01:14:04,VALID,919.081,VALID,0,VALID,96.2685,VALID,0.107441,VALID,19.5813,VALID,140,VALID,0.550781,
2010-01-23, 01:15:04,VALID,919.069,VALID,0,VALID,96.2685,VALID,0,VALID,19.5828,VALID,140,VALID,0.54375,
2010-01-23, 01:16:04,VALID,919.052,VALID,0,VALID,96.1008,VALID,0.107441,VALID,19.5438,VALID,140,VALID,0.582812,
2010-01-23, 01:17:04,VALID,919.021,VALID,0,VALID,96.0703,VALID,0,VALID,19.5243,VALID,140,VALID,0.648047,
2010-01-23, 01:18:04,VALID,918.997,VALID,0,VALID,96.1846,VALID,0.107441,VALID,19.5243,VALID,140,VALID,0.664063,
2010-01-23, 01:19:04,VALID,918.945,VALID,0,VALID,96.2533,VALID,0,VALID,19.5243,VALID,137,VALID,1.01641,
2010-01-23, 01:20:04,VALID,918.938,VALID,0,VALID,96.2151,VALID,0,VALID,19.4839,VALID,131,VALID,0.780859,
2010-01-23, 01:21:04,VALID,918.921,VALID,0,VALID,96.2914,VALID,0,VALID,19.5243,VALID,119,VALID,1.11875,
2010-01-23, 01:22:04,VALID,918.922,VALID,0,VALID,96.2456,VALID,0,VALID,19.5243,VALID,119,VALID,0.860937,
2010-01-23, 01:23:04,VALID,918.891,VALID,0,VALID,96.2914,VALID,0.107441,VALID,19.5243,VALID,119,VALID,1.0625,
2010-01-23, 01:24:04,VALID,918.887,VALID,0,VALID,96.3219,VALID,0,VALID,19.5243,VALID,119,VALID,1.08789,
2010-01-23, 01:25:04,VALID,918.887,VALID,0,VALID,96.36,VALID,0.107441,VALID,19.5243,VALID,119,VALID,1.05977,
2010-01-23, 01:26:04,VALID,918.868,VALID,0,VALID,96.3371,VALID,0.107441,VALID,19.5048,VALID,119,VALID,0.746875,
2010-01-23, 01:27:04,VALID,918.884,VALID,0,VALID,96.3524,VALID,0.107441,VALID,19.4644,VALID,119,VALID,0.660156,
2010-01-23, 01:28:04,VALID,918.85,VALID,0,VALID,96.4057,VALID,0,VALID,19.4853,VALID,119,VALID,0.766797,
2010-01-23, 01:29:04,VALID,918.853,VALID,0,VALID,96.4286,VALID,0,VALID,19.4658,VALID,119,VALID,0.736328,
2010-01-23, 01:30:04,VALID,918.842,VALID,0,VALID,96.3905,VALID,0,VALID,19.4463,VALID,118,VALID,0.526172,
2010-01-23, 01:31:04,VALID,918.806,VALID,0,VALID,96.3981,VALID,0,VALID,19.4478,VALID,119,VALID,0.518359,
2010-01-23, 01:32:04,VALID,918.816,VALID,0,VALID,96.4133,VALID,0,VALID,19.3879,VALID,119,VALID,0.626562,
2010-01-23, 01:33:04,VALID,918.781,VALID,0,VALID,96.5201,VALID,0,VALID,19.3879,VALID,118,VALID,0.683984,
2010-01-23, 01:34:04,VALID,918.782,VALID,0,VALID,96.5582,VALID,0,VALID,19.3879,VALID,119,VALID,0.8625,
2010-01-23, 01:35:04,VALID,918.812,VALID,0,VALID,96.5887,VALID,0.107441,VALID,19.3879,VALID,119,VALID,0.936328,
2010-01-23, 01:36:04,VALID,918.814,VALID,0,VALID,96.5887,VALID,0,VALID,19.3893,VALID,118,VALID,0.908984,
2010-01-23, 01:37:04,VALID,918.817,VALID,0,VALID,96.5277,VALID,0,VALID,19.3489,VALID,118,VALID,0.529688,
2010-01-23, 01:38:04,VALID,918.799,VALID,0,VALID,96.6649,VALID,0,VALID,19.3684,VALID,118,VALID,0.817187,
2010-01-23, 01:39:04,VALID,918.834,VALID,0,VALID,96.7107,VALID,0,VALID,19.3698,VALID,119,VALID,0.779688,
2010-01-23, 01:40:04,VALID,918.836,VALID,0,VALID,96.7488,VALID,0,VALID,19.3684,VALID,118,VALID,0.751953,
2010-01-23, 01:41:04,VALID,918.879,VALID,0,VALID,96.7793,VALID,0,VALID,19.3684,VALID,119,VALID,0.692578,
2010-01-23, 01:42:04,VALID,918.853,VALID,0,VALID,96.7793,VALID,0,VALID,19.3879,VALID,119,VALID,0.619141,
2010-01-23, 01:43:04,VALID,918.847,VALID,0,VALID,96.7564,VALID,0,VALID,19.4074,VALID,119,VALID,0.713281,
2010-01-23, 01:44:04,VALID,918.822,VALID,0,VALID,96.764,VALID,0,VALID,19.4268,VALID,119,VALID,0.741016,
2010-01-23, 01:45:04,VALID,918.854,VALID,0,VALID,96.7411,VALID,0.107441,VALID,19.4463,VALID,119,VALID,0.946094,
2010-01-23, 01:46:04,VALID,918.863,VALID,0,VALID,96.6878,VALID,0,VALID,19.4449,VALID,119,VALID,0.803125,
2010-01-23, 01:47:04,VALID,918.829,VALID,0,VALID,96.6497,VALID,0,VALID,19.5243,VALID,119,VALID,1.00742,
2010-01-23, 01:48:04,VALID,918.813,VALID,0,VALID,96.5048,VALID,0,VALID,19.5633,VALID,119,VALID,1.01641,
2010-01-23, 01:49:04,VALID,918.852,VALID,0,VALID,96.36,VALID,0,VALID,19.6023,VALID,119,VALID,0.927734,
2010-01-23, 01:50:04,VALID,918.829,VALID,0,VALID,96.177,VALID,0,VALID,19.6413,VALID,118,VALID,1.08555,
2010-01-23, 01:51:04,VALID,918.809,VALID,0,VALID,95.9254,VALID,0,VALID,19.7013,VALID,119,VALID,1.02422,
2010-01-23, 01:52:04,VALID,918.8,VALID,0,VALID,95.6281,VALID,0,VALID,19.7193,VALID,118,VALID,0.703125,
2010-01-23, 01:53:04,VALID,918.781,VALID,0,VALID,95.3766,VALID,0,VALID,19.7388,VALID,118,VALID,0.594141,
2010-01-23, 01:54:04,VALID,918.76,VALID,0,VALID,95.2012,VALID,0,VALID,19.7388,VALID,118,VALID,0.435156,
2010-01-23, 01:55:04,VALID,918.753,VALID,0,VALID,95.1326,VALID,0,VALID,19.7193,VALID,119,VALID,0.654297,
2010-01-23, 01:56:04,VALID,918.747,VALID,0,VALID,95.1174,VALID,0,VALID,19.6998,VALID,119,VALID,0.795703,
2010-01-23, 01:57:04,VALID,918.751,VALID,0,VALID,95.1402,VALID,0,VALID,19.6998,VALID,118,VALID,0.954297,
2010-01-23, 01:58:04,VALID,918.721,VALID,0,VALID,95.0945,VALID,0,VALID,19.6803,VALID,119,VALID,0.579687,
2010-01-23, 01:59:04,VALID,918.75,VALID,0,VALID,95.0792,VALID,0,VALID,19.6608,VALID,119,VALID,0.875781,
2010-01-23, 02:00:04,VALID,918.746,VALID,0,VALID,95.0792,VALID,0,VALID,19.6218,VALID,119,VALID,1.02734,
2010-01-23, 02:01:04,VALID,918.705,VALID,0,VALID,95.186,VALID,0,VALID,19.6023,VALID,119,VALID,0.926953,
2010-01-23, 02:02:04,VALID,918.692,VALID,0,VALID,95.2851,VALID,0,VALID,19.5828,VALID,119,VALID,0.916406,
2010-01-23, 02:03:04,VALID,918.629,VALID,0,VALID,95.3461,VALID,0,VALID,19.5828,VALID,119,VALID,1.06836,
2010-01-23, 02:04:04,VALID,918.642,VALID,0,VALID,95.3613,VALID,0,VALID,19.5633,VALID,119,VALID,1.13672,
2010-01-23, 02:05:04,VALID,918.624,VALID,0,VALID,95.3766,VALID,0,VALID,19.5438,VALID,119,VALID,1.2375,
2010-01-23, 02:06:04,VALID,918.583,VALID,0,VALID,95.529,VALID,0.107441,VALID,19.5438,VALID,119,VALID,1.19609,
2010-01-23, 02:07:04,VALID,918.588,VALID,0,VALID,95.5443,VALID,0,VALID,19.5033,VALID,118,VALID,1.09023,
2010-01-23, 02:08:04,VALID,918.576,VALID,0,VALID,95.4985,VALID,0,VALID,19.5243,VALID,118,VALID,1.01367,
2010-01-23, 02:09:04,VALID,918.578,VALID,0,VALID,95.5519,VALID,0,VALID,19.5243,VALID,119,VALID,1.08633,
2010-01-23, 02:10:04,VALID,918.582,VALID,0,VALID,95.6357,VALID,0,VALID,19.5048,VALID,119,VALID,1.09141,
2010-01-23, 02:11:04,VALID,918.6,VALID,0,VALID,95.6739,VALID,0,VALID,19.5048,VALID,119,VALID,1.08906,
2010-01-23, 02:12:04,VALID,918.58,VALID,0,VALID,95.6662,VALID,0.107441,VALID,19.5048,VALID,119,VALID,0.878906,
2010-01-23, 02:13:04,VALID,918.562,VALID,0,VALID,95.7196,VALID,0.107441,VALID,19.4853,VALID,119,VALID,0.878125,
2010-01-23, 02:14:04,VALID,918.54,VALID,0,VALID,95.8568,VALID,0,VALID,19.4853,VALID,119,VALID,1.0543,
2010-01-23, 02:15:04,VALID,918.55,VALID,0,VALID,95.9178,VALID,0,VALID,19.4658,VALID,119,VALID,1.05273,
2010-01-23, 02:16:04,VALID,918.531,VALID,0,VALID,95.9331,VALID,0.107441,VALID,19.4268,VALID,119,VALID,0.929297,
2010-01-23, 02:17:04,VALID,918.492,VALID,0,VALID,95.9407,VALID,0,VALID,19.4074,VALID,119,VALID,0.721875,
2010-01-23, 02:18:04,VALID,918.495,VALID,0,VALID,96.0169,VALID,0,VALID,19.4074,VALID,119,VALID,0.510156,
2010-01-23, 02:19:04,VALID,918.459,VALID,0,VALID,96.0703,VALID,0,VALID,19.4074,VALID,160,VALID,0.378516,
2010-01-23, 02:20:04,VALID,918.421,VALID,0,VALID,96.0169,VALID,0,VALID,19.3879,VALID,160,VALID,0.868359,
2010-01-23, 02:21:04,VALID,918.398,VALID,0,VALID,95.9788,VALID,0,VALID,19.3698,VALID,160,VALID,0.569531,
2010-01-23, 02:22:04,VALID,918.363,VALID,0,VALID,96.0474,VALID,0,VALID,19.3294,VALID,160,VALID,0.766797,
2010-01-23, 02:23:04,VALID,918.346,VALID,0,VALID,96.055,VALID,0,VALID,19.3099,VALID,160,VALID,0.841797,
2010-01-23, 02:24:04,VALID,918.35,VALID,0,VALID,96.1846,VALID,0,VALID,19.3099,VALID,159,VALID,0.85,
2010-01-23, 02:25:04,VALID,918.312,VALID,0,VALID,96.2914,VALID,0,VALID,19.2709,VALID,159,VALID,1.18359,
2010-01-23, 02:26:04,VALID,918.356,VALID,0,VALID,96.3066,VALID,0.107441,VALID,19.2514,VALID,158,VALID,1.025,
2010-01-23, 02:27:04,VALID,918.361,VALID,0,VALID,96.3524,VALID,0,VALID,19.2514,VALID,127,VALID,0.963281,
2010-01-23, 02:28:05,VALID,918.326,VALID,0,VALID,96.4667,VALID,0,VALID,19.2514,VALID,127,VALID,1.25547,
2010-01-23, 02:29:05,VALID,918.353,VALID,0,VALID,96.5277,VALID,0,VALID,19.2334,VALID,127,VALID,1.37148,
2010-01-23, 02:30:05,VALID,918.334,VALID,0,VALID,96.6344,VALID,0,VALID,19.2124,VALID,132,VALID,1.15391,
2010-01-23, 02:31:05,VALID,918.339,VALID,0,VALID,96.6497,VALID,0,VALID,19.1734,VALID,133,VALID,1.28945,
2010-01-23, 02:32:05,VALID,918.351,VALID,0,VALID,96.7488,VALID,0,VALID,19.1944,VALID,140,VALID,1.26055,
2010-01-23, 02:33:05,VALID,918.319,VALID,0,VALID,96.825,VALID,0.107441,VALID,19.1734,VALID,141,VALID,1.14883,
2010-01-23, 02:34:05,VALID,918.333,VALID,0,VALID,96.8936,VALID,0,VALID,19.1944,VALID,141,VALID,1.17188,
2010-01-23, 02:35:05,VALID,918.284,VALID,0,VALID,96.9165,VALID,0,VALID,19.1749,VALID,141,VALID,0.689453,
2010-01-23, 02:36:05,VALID,918.322,VALID,0,VALID,96.9241,VALID,0.107441,VALID,19.1734,VALID,141,VALID,0.704687,
2010-01-23, 02:37:05,VALID,918.293,VALID,0,VALID,96.9317,VALID,0.107441,VALID,19.1539,VALID,141,VALID,0.696875,
2010-01-23, 02:38:05,VALID,918.271,VALID,0,VALID,96.9927,VALID,0,VALID,19.1539,VALID,141,VALID,1.03555,
2010-01-23, 02:39:05,VALID,918.265,VALID,0,VALID,96.9775,VALID,0,VALID,19.1539,VALID,141,VALID,0.363281,
2010-01-23, 02:40:05,VALID,918.253,VALID,0,VALID,97.008,VALID,0,VALID,19.1749,VALID,141,VALID,0.410937,
2010-01-23, 02:41:05,VALID,918.239,VALID,0,VALID,97.0232,VALID,0,VALID,19.1734,VALID,141,VALID,0.619922,
2010-01-23, 02:42:05,VALID,918.207,VALID,0,VALID,97.0385,VALID,0,VALID,19.1734,VALID,141,VALID,1.27539,
2010-01-23, 02:43:05,VALID,918.198,VALID,0,VALID,97.0308,VALID,0.107441,VALID,19.1929,VALID,141,VALID,0.838281,
2010-01-23, 02:44:05,VALID,918.139,VALID,0,VALID,97.0385,VALID,0,VALID,19.1929,VALID,141,VALID,0.765625,
2010-01-23, 02:45:05,VALID,918.136,VALID,0,VALID,97.008,VALID,0,VALID,19.1929,VALID,141,VALID,1.10039,
2010-01-23, 02:46:05,VALID,918.087,VALID,0,VALID,97.0766,VALID,0,VALID,19.2528,VALID,165,VALID,1.09063,
2010-01-23, 02:47:05,VALID,918.094,VALID,0,VALID,97.0385,VALID,0,VALID,19.2319,VALID,214,VALID,1.00508,
2010-01-23, 02:48:05,VALID,918.096,VALID,0,VALID,97.0156,VALID,0.107441,VALID,19.2514,VALID,138,VALID,1.57852,
2010-01-23, 02:49:05,VALID,918.081,VALID,0,VALID,97.0003,VALID,0,VALID,19.2709,VALID,148,VALID,0.834766,
2010-01-23, 02:50:05,VALID,918.061,VALID,0,VALID,96.9622,VALID,0,VALID,19.2709,VALID,146,VALID,0.566797,
2010-01-23, 02:51:05,VALID,918.068,VALID,0,VALID,96.947,VALID,0,VALID,19.2709,VALID,156,VALID,1.27109,
2010-01-23, 02:52:05,VALID,918.003,VALID,0,VALID,96.9241,VALID,0.107441,VALID,19.3099,VALID,148,VALID,0.757422,
2010-01-23, 02:53:05,VALID,918.025,VALID,0,VALID,96.8784,VALID,0,VALID,19.3113,VALID,148,VALID,0.639063,
2010-01-23, 02:54:05,VALID,918.022,VALID,0,VALID,96.8326,VALID,0.107441,VALID,19.2514,VALID,147,VALID,0.501562,
2010-01-23, 02:55:05,VALID,917.977,VALID,0,VALID,96.8403,VALID,0.107441,VALID,19.2709,VALID,147,VALID,0.316406,
2010-01-23, 02:56:05,VALID,917.92,VALID,0,VALID,96.8631,VALID,0.107441,VALID,19.2723,VALID,147,VALID,0.758594,
2010-01-23, 02:57:05,VALID,917.901,VALID,0,VALID,96.886,VALID,0.107441,VALID,19.2514,VALID,147,VALID,0.587109,
2010-01-23, 02:58:05,VALID,917.902,VALID,0,VALID,96.8479,VALID,0,VALID,19.2304,VALID,147,VALID,0.652734,
2010-01-23, 02:59:05,VALID,917.871,VALID,0,VALID,96.8403,VALID,0.107441,VALID,19.2514,VALID,146,VALID,0.591016,
2010-01-23, 03:00:05,VALID,917.851,VALID,0,VALID,96.8174,VALID,0.107441,VALID,19.2109,VALID,146,VALID,0.478906,
2010-01-23, 03:01:05,VALID,917.838,VALID,0,VALID,96.7945,VALID,0.107441,VALID,19.2319,VALID,146,VALID,0.718359,
2010-01-23, 03:02:05,VALID,917.835,VALID,0,VALID,96.7945,VALID,0.107441,VALID,19.2319,VALID,146,VALID,0.463672,
2010-01-23, 03:03:05,VALID,917.842,VALID,0,VALID,96.8098,VALID,0.107441,VALID,19.2319,VALID,146,VALID,0.974609,
2010-01-23, 03:04:05,VALID,917.829,VALID,0,VALID,96.764,VALID,0,VALID,19.2514,VALID,146,VALID,0.647656,
2010-01-23, 03:05:05,VALID,917.837,VALID,0,VALID,96.703,VALID,0,VALID,19.2319,VALID,146,VALID,0.526953,
2010-01-23, 03:06:05,VALID,917.806,VALID,0,VALID,96.642,VALID,0,VALID,19.2124,VALID,146,VALID,0.622656,
2010-01-23, 03:07:05,VALID,917.799,VALID,0,VALID,96.5963,VALID,0,VALID,19.2124,VALID,146,VALID,0.524219,
2010-01-23, 03:08:05,VALID,917.781,VALID,0,VALID,96.5734,VALID,0.107441,VALID,19.2124,VALID,146,VALID,0.538672,
2010-01-23, 03:09:05,VALID,917.768,VALID,0,VALID,96.6039,VALID,0,VALID,19.2319,VALID,146,VALID,0.378125,
2010-01-23, 03:10:05,VALID,917.757,VALID,0,VALID,96.642,VALID,0.107441,VALID,19.2109,VALID,146,VALID,0.994922,
2010-01-23, 03:11:05,VALID,917.785,VALID,0,VALID,96.6649,VALID,0.107441,VALID,19.2319,VALID,146,VALID,0.130469,
2010-01-23, 03:12:05,VALID,917.774,VALID,0,VALID,96.6344,VALID,0.107441,VALID,19.2304,VALID,146,VALID,0.357031,
2010-01-23, 03:13:05,VALID,917.728,VALID,0,VALID,96.6344,VALID,0,VALID,19.2319,VALID,146,VALID,0.330469,
2010-01-23, 03:14:05,VALID,917.728,VALID,0,VALID,96.6192,VALID,0,VALID,19.2319,VALID,146,VALID,0,
2010-01-23, 03:15:05,VALID,917.729,VALID,0,VALID,96.6115,VALID,0.107441,VALID,19.2124,VALID,146,VALID,0.121094,
2010-01-23, 03:16:05,VALID,917.683,VALID,0,VALID,96.6192,VALID,0.107441,VALID,19.2124,VALID,146,VALID,0,
2010-01-23, 03:17:05,VALID,917.722,VALID,0,VALID,96.5582,VALID,0,VALID,19.1929,VALID,146,VALID,0.286719,
2010-01-23, 03:18:05,VALID,917.695,VALID,0,VALID,96.5048,VALID,0,VALID,19.1749,VALID,146,VALID,0.329297,
2010-01-23, 03:19:05,VALID,917.695,VALID,0,VALID,96.5048,VALID,0,VALID,19.1749,VALID,146,VALID,0.189453,
2010-01-23, 03:20:05,VALID,917.686,VALID,0,VALID,96.5734,VALID,0,VALID,19.133,VALID,146,VALID,0.137891,
2010-01-23, 03:21:05,VALID,917.677,VALID,0,VALID,96.5582,VALID,0,VALID,19.1359,VALID,146,VALID,0.437891,
2010-01-23, 03:22:05,VALID,917.67,VALID,0,VALID,96.5658,VALID,0,VALID,19.0954,VALID,146,VALID,0.228125,
2010-01-23, 03:23:05,VALID,917.661,VALID,0,VALID,96.6039,VALID,0,VALID,19.1359,VALID,146,VALID,0.464063,
2010-01-23, 03:24:05,VALID,917.677,VALID,0,VALID,96.6649,VALID,0,VALID,19.1359,VALID,146,VALID,0.741016,
2010-01-23, 03:25:05,VALID,917.641,VALID,0,VALID,96.6344,VALID,0.107441,VALID,19.1149,VALID,146,VALID,1.21211,
2010-01-23, 03:26:05,VALID,917.679,VALID,0,VALID,96.6192,VALID,0,VALID,19.1344,VALID,146,VALID,0.75625,
2010-01-23, 03:27:05,VALID,917.651,VALID,0,VALID,96.6039,VALID,0,VALID,19.1344,VALID,146,VALID,0.585938,
2010-01-23, 03:28:05,VALID,917.655,VALID,0,VALID,96.6192,VALID,0,VALID,19.1554,VALID,146,VALID,0.657031,
2010-01-23, 03:29:05,VALID,917.618,VALID,0,VALID,96.5734,VALID,0.107441,VALID,19.1539,VALID,146,VALID,0.585938,
2010-01-23, 03:30:05,VALID,917.644,VALID,0,VALID,96.5582,VALID,0,VALID,19.1749,VALID,146,VALID,0.639063,
2010-01-23, 03:31:05,VALID,917.615,VALID,0,VALID,96.5582,VALID,0,VALID,19.1749,VALID,126,VALID,0.483984,
2010-01-23, 03:32:05,VALID,917.616,VALID,0,VALID,96.5506,VALID,0,VALID,19.1944,VALID,138,VALID,0.242969,
2010-01-23, 03:33:05,VALID,917.62,VALID,0,VALID,96.5506,VALID,0,VALID,19.2124,VALID,188,VALID,0.978906,
2010-01-23, 03:34:05,VALID,917.603,VALID,0,VALID,96.4819,VALID,0,VALID,19.2124,VALID,156,VALID,1.14375,
2010-01-23, 03:35:05,VALID,917.584,VALID,0,VALID,96.3905,VALID,0,VALID,19.2709,VALID,126,VALID,1.58984,
2010-01-23, 03:36:05,VALID,917.572,VALID,0,VALID,96.2914,VALID,0,VALID,19.2709,VALID,148,VALID,1.28477,
2010-01-23, 03:37:05,VALID,917.573,VALID,0,VALID,96.1846,VALID,0,VALID,19.3099,VALID,141,VALID,1.74609,
2010-01-23, 03:38:05,VALID,917.56,VALID,0,VALID,96.0474,VALID,0,VALID,19.3503,VALID,124,VALID,1.53242,
2010-01-23, 03:39:05,VALID,917.537,VALID,0,VALID,95.895,VALID,0,VALID,19.3698,VALID,123,VALID,1.23633,
2010-01-23, 03:40:05,VALID,917.547,VALID,0,VALID,95.8187,VALID,0,VALID,19.3684,VALID,123,VALID,1.33242,
2010-01-23, 03:41:05,VALID,917.567,VALID,0,VALID,95.7577,VALID,0,VALID,19.3698,VALID,123,VALID,1.50234,